FW2126 Weather Reports


Display with metric or nautical units.
time (UTC)temp
F
wind
direction
speed
MPH
gust
MPH
rain 1hr
in
rain 24hr
in
rain mn
in
humidity
%
barometer
mb
20260507114613 35 249 12.0 15.0 0.01 0.33 0.01 95 1023.2
20260507113054 35 246 10.0 13.0 0.00 0.32 0.00 95 1023.0
20260507111559 34 257 9.0 11.0 0.00 0.32 0.00 95 1022.9
20260507110054 34 256 8.0 11.0 0.00 0.32 0.00 95 1023.1
20260507104552 34 257 8.0 11.0 0.00 0.32 0.00 94 1023.3
20260507103049 35 264 6.0 10.0 0.00 0.32 0.00 95 1022.9
20260507101547 35 282 5.0 8.0 0.00 0.32 0.00 94 1023.3
20260507100046 35 267 5.0 9.0 0.00 0.32 0.00 94 1023.4
20260507094546 35 262 6.0 8.0 0.00 0.32 0.00 94 1023.5
20260507093052 35 258 5.0 8.0 0.00 0.32 0.00 94 1023.1
20260507091550 35 287 6.0 9.0 0.00 0.32 0.00 94 1023.2
20260507090041 35 269 3.0 6.0 0.00 0.32 0.00 94 1022.9
20260507084539 35 277 2.0 4.0 0.00 0.32 0.00 94 1022.9
20260507083039 35 276 2.0 4.0 0.00 0.32 0.00 94 1023.1
20260507081543 35 276 3.0 4.0 0.00 0.32 0.00 93 1023.4
20260507080032 36 314 0.0 0.0 0.00 0.32 0.00 93 1023.4
20260507074549 36 314 0.0 3.0 0.00 0.32 0.00 93 1023.5
20260507073028 36 315 3.0 4.0 0.00 0.32 0.00 93 1023.8
20260507071526 37 316 2.0 3.0 0.00 0.32 0.00 93 1024.0
20260507070024 38 317 2.0 5.0 0.00 0.32 0.00 93 1024.0
20260507064523 38 302 4.0 7.0 0.00 0.32 0.00 93 1024.1
20260507063025 38 5 2.0 3.0 0.00 0.32 0.00 93 1024.2
20260507061520 38 5 1.0 3.0 0.00 0.32 0.00 93 1024.3
20260507060025 38 5 1.0 3.0 0.00 0.32 0.00 93 1024.2
20260507054521 38 5 1.0 2.0 0.00 0.32 0.00 93 1024.1
20260507053019 38 5 1.0 3.0 0.00 0.32 0.00 93 1024.3
20260507051515 38 41 0.0 3.0 0.00 0.32 0.00 93 1024.4
20260507050024 39 42 2.0 3.0 0.01 0.32 0.00 93 1024.0
20260507044510 39 42 2.0 4.0 0.03 0.32 0.32 93 1024.1
20260507043010 39 44 3.0 6.0 0.08 0.32 0.32 93 1024.1
20260507041509 39 36 3.0 8.0 0.11 0.32 0.32 92 1024.1
20260507040009 39 28 6.0 12.0 0.15 0.31 0.31 92 1024.2
20260507034507 39 31 7.0 12.0 0.17 0.28 0.28 91 1024.2
20260507033016 40 42 4.0 11.0 0.19 0.24 0.24 91 1024.2
20260507031506 40 57 7.0 11.0 0.16 0.20 0.20 91 1023.4
20260507030004 40 43 5.0 11.0 0.12 0.15 0.15 90 1023.3
20260507024502 40 43 3.0 7.0 0.09 0.11 0.11 90 1023.5
20260507023106 40 47 3.0 11.0 0.04 0.05 0.05 90 1023.0
20260507021602 40 62 8.0 14.0 0.04 0.04 0.04 89 1022.4
20260507020100 41 29 15.0 21.0 0.03 0.03 0.03 87 1022.6
20260507014604 41 46 12.0 16.0 0.02 0.02 0.02 85 1022.8
20260507013055 42 46 12.0 19.0 0.01 0.01 0.01 82 1022.4
20260507011554 44 345 12.0 20.0 0.00 0.00 0.00 78 1021.7
20260507010052 46 39 13.0 19.0 0.00 0.00 0.00 70 1021.3
20260507004551 47 54 9.0 17.0 0.00 0.00 0.00 66 1021.2
20260507003051 48 55 15.0 21.0 0.00 0.00 0.00 65 1020.4
20260507001546 49 48 12.0 17.0 0.00 0.00 0.00 65 1020.1
20260507000044 49 44 10.0 17.0 0.00 0.00 0.00 65 1019.7
20260506234542 50 44 10.0 17.0 0.00 0.00 0.00 64 1019.2
20260506233046 51 42 10.0 17.0 0.00 0.00 0.00 63 1019.0
20260506231542 51 360 8.0 18.0 0.00 0.00 0.00 63 1018.8
20260506230041 51 360 14.0 22.0 0.00 0.00 0.00 63 1018.6
20260506224541 52 360 16.0 21.0 0.00 0.00 0.00 63 1018.2
20260506223040 51 360 12.0 22.0 0.00 0.00 0.00 66 1018.1
20260506221539 52 360 15.0 24.0 0.00 0.00 0.00 65 1018.2
20260506220039 52 360 13.0 20.0 0.00 0.00 0.00 64 1018.4
20260506214537 50 51 9.0 20.0 0.00 0.00 0.00 68 1018.4
20260506213037 50 78 9.0 21.0 0.00 0.00 0.00 70 1018.2
20260506211536 50 360 8.0 15.0 0.00 0.00 0.00 71 1018.4
20260506210035 50 71 6.0 13.0 0.00 0.00 0.00 72 1018.7
20260506204535 52 360 11.0 16.0 0.00 0.00 0.00 73 1018.8
20260506203034 49 360 9.0 15.0 0.00 0.00 0.00 74 1019.1
20260506201528 47 360 6.0 13.0 0.00 0.00 0.00 79 1019.3
20260506200026 46 360 6.0 11.0 0.00 0.00 0.00 81 1019.1
20260506194524 45 360 10.0 15.0 0.00 0.00 0.00 81 1019.1
20260506193021 44 360 8.0 16.0 0.00 0.00 0.00 84 1019.4
20260506191520 44 360 9.0 14.0 0.00 0.00 0.00 85 1019.2
20260506190019 43 360 8.0 13.0 0.00 0.00 0.00 86 1019.4
20260506184516 42 360 7.0 13.0 0.00 0.00 0.00 87 1019.7
20260506183014 42 360 7.0 13.0 0.00 0.00 0.00 89 1019.5
20260506181514 42 360 10.0 17.0 0.00 0.00 0.00 90 1019.3
20260506180014 41 360 10.0 14.0 0.00 0.00 0.00 90 1019.7
20260506174512 41 360 9.0 14.0 0.00 0.00 0.00 91 1019.6
20260506173012 41 360 10.0 15.0 0.00 0.00 0.00 91 1019.6
20260506171512 41 104 8.0 12.0 0.00 0.00 0.00 92 1019.2
20260506170009 40 79 9.0 14.0 0.00 0.00 0.00 91 1019.1
20260506164508 40 100 8.0 12.0 0.00 0.00 0.00 91 1019.2
20260506163017 40 86 6.0 11.0 0.00 0.00 0.00 90 1018.9
20260506161504 40 108 7.0 12.0 0.00 0.00 0.00 90 1019.0
20260506160011 40 74 7.0 12.0 0.00 0.00 0.00 89 1018.9
20260506154628 40 94 7.0 11.0 0.00 0.00 0.00 89 1018.3
20260506153110 40 92 7.0 11.0 0.00 0.00 0.00 88 1018.3
20260506151600 40 111 8.0 11.0 0.00 0.00 0.00 87 1018.0
20260506144557 40 80 8.0 12.0 0.00 0.00 0.00 86 1018.0
20260506143105 40 92 8.0 13.0 0.00 0.00 0.00 85 1017.9
20260506141554 40 113 10.0 14.0 0.00 0.00 0.00 84 1017.5
20260506140058 41 115 10.0 15.0 0.00 0.00 0.00 83 1017.5
20260506134554 41 98 9.0 12.0 0.00 0.00 0.00 82 1017.8
20260506133053 41 101 8.0 12.0 0.00 0.00 0.00 82 1018.0
20260506131551 41 76 7.0 12.0 0.00 0.00 0.00 81 1017.9
20260506130050 40 97 7.0 13.0 0.00 0.00 0.00 81 1017.4
20260506124549 40 123 10.0 14.0 0.00 0.00 0.00 81 1017.2
20260506123048 40 119 11.0 16.0 0.00 0.00 0.00 80 1016.9
20260506121546 40 125 10.0 18.0 0.00 0.00 0.00 80 1016.4
20260506120055 40 121 14.0 19.0 0.00 0.00 0.00 80 1016.9